User: anonymous   Login
Location: Unspecified
(0.0000°N, 0.0000°E)
Time: 02:06:06
(UTC+00:00)
Language:

OBJECT B - Orbit

View from above orbital plane
View from above orbital plane
View from above satellite
View from above satellite

Ground track
Ground track

The orbit is defined by the following mean orbital elements,

1 65545U          26145.22856824 +.00000000 +00000-0 +44933-4 0 00000
2 65545  85.9924  54.3944 0001958  96.8573 263.2833 14.12444295    07
Epoch (UTC): 25 May 2026 05:29:08
Eccentricity: 0.0001958
inclination: 85.9924°
perigee height: 850 km
apogee height: 852 km
right ascension of ascending node: 54.3944°
argument of perigee: 96.8573°
revolutions per day: 14.12444295
mean anomaly at epoch: 263.2833°

The dashed part of the orbit path shows where the satellite is in the earth's shadow,  

DLR